[Iaude] MPEC V154: 2023 VX4 [a=1.44,e=0.30,i=2.1,H=27.4]
    mpec at marsden.cfa.harvard.edu 
    mpec at marsden.cfa.harvard.edu
       
    Thu Nov  9 20:21:01 EST 2023
    
    
  
M.P.E.C. 2023-V154                            Issued 2023 November 10, 01:19 UT
     The Minor Planet Electronic Circulars contain information on unusual
         minor planets, routine data on comets and natural satellites,
         and occasional editorial announcements.  They are published
    on behalf of Division F of the International Astronomical Union by the
          Minor Planet Center, Smithsonian Astrophysical Observatory,
                          Cambridge, MA 02138, U.S.A.
			  
             Prepared using the Tamkin Foundation Computer Network
                              MPC at CFA.HARVARD.EDU
            URL https://www.minorplanetcenter.net/    ISSN 1523-6714
                                    2023 VX4                                    
Observations:
     K23V04X  C2023 11 04.32407100 27 55.322-10 33 12.35         22.62GVEV154F51
     K23V04X  C2023 11 04.34662100 28 00.801-10 31 42.88         22.22GVEV154F51
     K23V04X*1C2023 11 08.23374900 56 36.686-04 52 38.24         20.87GVEV154G96
     K23V04X 1C2023 11 08.23897500 56 39.052-04 52 02.42         20.76GVEV154G96
     K23V04X 1C2023 11 08.24420500 56 41.370-04 51 26.60         20.87GVEV154G96
     K23V04X 1C2023 11 08.24944000 56 43.688-04 50 51.50         20.85GVEV154G96
     K23V04X KC2023 11 08.30743100 57 10.240-04 44 12.70         20.64GVEV154I52
     K23V04X KC2023 11 08.31038400 57 11.630-04 43 52.90         19.66GVEV154I52
     K23V04X KC2023 11 08.31332300 57 12.990-04 43 31.80         20.73GVEV154I52
     K23V04X KC2023 11 08.31626200 57 14.370-04 43 11.40         20.76GVEV154I52
     K23V04X mC2023 11 09.16367301 05 57.462-03 00 26.39         20.71GVEV154I52
     K23V04X mC2023 11 09.16415601 05 57.728-03 00 23.58         20.70GVEV154I52
     K23V04X mC2023 11 09.16464001 05 58.002-03 00 19.40               VEV154I52
     K23V04X mC2023 11 09.16513001 05 58.232-03 00 14.62         21.12GVEV154I52
Observer details:
F51 Pan-STARRS 1, Haleakala.  Observers J. Bulger, T. Lowe, P. Minguez, A.
    Schultz, I. Smith.  Measurers K. Chambers, T. de Boer, J. Fairlamb, H.
    Gao, M. Huber, C.-C. Lin, E. Magnier, Y. Ramanjooloo, R. Wainscoat, R.
    Weryk.  1.8-m Ritchey-Chretien + CCD.
G96 Mt. Lemmon Survey.  Observer D. Rankin.  Measurers E. C. Beshore, D. Fay,
    J. B. Fazekas, D. C. Fuls, A. R. Gibbs, A. D. Grauer, H. Groeller, J. K.
    Hogan, R. A. Kowalski, S. M. Larson, G. J. Leonard, D. Rankin, R. L.
    Seaman, F. C. Shelly, K. W. Wierzchos.  1.5-m reflector + 10K CCD.
I52 Steward Observatory, Mt. Lemmon Station.  Observer H. Groeller.  Measurers
    E. C. Beshore, D. Fay, J. B. Fazekas, D. C. Fuls, A. R. Gibbs, A. D.
    Grauer, H. Groeller, J. K. Hogan, R. A. Kowalski, S. M. Larson, G. J.
    Leonard, D. Rankin, R. L. Seaman, F. C. Shelly, K. W. Wierzchos.  1.0-m
    prime focus + CCD.
Orbital elements:
2023 VX4                                                 Earth MOID = 0.0176 AU
Epoch 2023 Sept. 13.0 TT = JDT 2460200.5                Veres                   
M 320.62471              (2000.0)            P               Q                  
n   0.56899638     Peri.    6.63609     +0.51922537     -0.85417016             
a   1.4423247      Node    52.08752     +0.78245896     +0.46181666             
e   0.3023111      Incl.    2.05241     +0.34374844     +0.23899522             
P   1.73           H   27.49          G   0.15           U   8                  
Residuals in seconds of arc
231104 F51  0.2+  0.1+    231108 G96  0.5-  0.2-    231109 I52  0.3-  0.2+
231104 F51  0.2-  0.1-    231108 I52  0.1+  0.1+    231109 I52  0.0   0.7-
231108 G96  0.2-  0.2-    231108 I52  0.2+  0.6-    231109 I52  0.3+  0.2-
231108 G96  0.2+  0.1+    231108 I52  0.1-  0.1+    231109 I52  0.1-  0.8+
231108 G96  0.1-  0.3+    231108 I52  0.2-  0.2+
Ephemeris:
2023 VX4                 a,e,i = 1.44, 0.30, 2                   q = 1.0063
Date    TT    R. A. (2000) Decl.     Delta      r    Elong.  Phase     V
2023 10 11    23 42 33.1 -18 16 19   0.08991 1.0759   148.1    29.4    23.7
...
2023 10 26    23 55 02.0 -16 31 47   0.05478 1.0357   138.0    40.0    22.8
...
2023 11 03    00 20 52.6 -11 51 33   0.03766 1.0206   138.3    40.3    22.0
...
2023 11 09    01 04 08.2 -03 18 08   0.02629 1.0127   146.3    32.9    21.0
2023 11 10    01 15 07.8 -01 03 21   0.02465 1.0117   148.9    30.4    20.8
2023 11 11    01 27 41.0 +01 30 53   0.02313 1.0107   152.0    27.4    20.6
...
2023 11 17    03 26 54.3 +23 12 57   0.01802 1.0069   175.6     4.4    19.2
...
2023 11 25    06 51 16.9 +38 51 24   0.02535 1.0065   139.1    40.0    21.1
...
2023 12 10    08 51 41.7 +36 18 55   0.05485 1.0208   129.6    48.0    23.0
M. P. C. Staff               (C) Copyright 2023 MPC           M.P.E.C. 2023-V154
    
    
More information about the Iaude
mailing list